Previsão horária em Abbeville

Hoje, 14 Abril, Quarta-feira

Tempo Temperatura Precipitação Vento Pressão Humidade
00:00 +2°C° 0 mm 1 m/s 771 mmHg 74%
01:00 +2°C° 0 mm 1 m/s 771 mmHg 74%
02:00 +2°C° 0 mm 1 m/s 771 mmHg 73%
03:00 +2°C° 0 mm 1 m/s 771 mmHg 73%
04:00 +2°C° 0 mm 1 m/s 771 mmHg 73%
05:00 +1°C° 0 mm 0 m/s 771 mmHg 72%
06:00 +1°C° 0 mm 0 m/s 771 mmHg 72%
07:00 +5°C° 0 mm 1 m/s 771 mmHg 67%
08:00 +6°C° 0 mm 2 m/s 771 mmHg 63%
09:00 +8°C° 0 mm 3 m/s 771 mmHg 59%
10:00 +8°C° 0 mm 3 m/s 771 mmHg 56%
11:00 +8°C° 0 mm 4 m/s 771 mmHg 54%
12:00 +8°C° 0 mm 5 m/s 770 mmHg 50%
13:00 +8°C° 0 mm 5 m/s 770 mmHg 49%
14:00 +8°C° 0 mm 6 m/s 770 mmHg 48%
15:00 +8°C° 0 mm 6 m/s 770 mmHg 47%
16:00 +7°C° 0 mm 6 m/s 770 mmHg 53%
17:00 +5°C° 0 mm 6 m/s 770 mmHg 59%
18:00 +3°C° 0 mm 5 m/s 770 mmHg 65%
19:00 +2°C° 0 mm 5 m/s 770 mmHg 72%
20:00 0°C° 0 mm 4 m/s 771 mmHg 80%
21:00 -1°C° 0 mm 4 m/s 771 mmHg 88%
22:00 0°C° 0 mm 3 m/s 771 mmHg 89%
23:00 -1°C° 0 mm 3 m/s 771 mmHg 91%

Amanhã, 15 Abril, Quinta-feira

Tempo Temperatura Precipitação Vento Pressão Humidade
00:00 -1°C° 0 mm 3 m/s 771 mmHg 92%
01:00 -1°C° 0 mm 3 m/s 771 mmHg 93%
02:00 -1°C° 0 mm 3 m/s 771 mmHg 93%
03:00 -1°C° 0 mm 3 m/s 771 mmHg 93%
04:00 -1°C° 0 mm 3 m/s 771 mmHg 92%
05:00 -1°C° 0 mm 3 m/s 771 mmHg 90%
06:00 -1°C° 0 mm 3 m/s 771 mmHg 89%
07:00 +2°C° 0 mm 3 m/s 771 mmHg 80%
08:00 +4°C° 0 mm 4 m/s 771 mmHg 71%
09:00 +6°C° 0 mm 5 m/s 771 mmHg 62%
10:00 +6°C° 0.2 mm 5 m/s 770 mmHg 62%
11:00 +7°C° 0.2 mm 5 m/s 770 mmHg 62%
12:00 +7°C° 0.2 mm 5 m/s 770 mmHg 61%
13:00 +7°C° 0.2 mm 5 m/s 769 mmHg 58%
14:00 +8°C° 0.2 mm 6 m/s 769 mmHg 54%
15:00 +8°C° 0.2 mm 6 m/s 769 mmHg 51%
16:00 +7°C° 0 mm 6 m/s 769 mmHg 57%
17:00 +5°C° 0 mm 6 m/s 769 mmHg 63%
18:00 +4°C° 0 mm 6 m/s 769 mmHg 68%
19:00 +3°C° 0 mm 5 m/s 769 mmHg 74%
20:00 +1°C° 0 mm 4 m/s 769 mmHg 79%
21:00 0°C° 0 mm 4 m/s 769 mmHg 85%
22:00 0°C° 0 mm 4 m/s 769 mmHg 86%
23:00 0°C° 0 mm 3 m/s 769 mmHg 88%

Depois de amanhã, 16 Abril, Sexta-feira

Tempo Temperatura Precipitação Vento Pressão Humidade
00:00 0°C° 0 mm 3 m/s 769 mmHg 90%
01:00 0°C° 0 mm 3 m/s 769 mmHg 89%
02:00 -1°C° 0 mm 3 m/s 769 mmHg 87%
03:00 -1°C° 0 mm 3 m/s 769 mmHg 86%
04:00 0°C° 0 mm 3 m/s 769 mmHg 85%
05:00 0°C° 0 mm 3 m/s 769 mmHg 85%
06:00 +1°C° 0 mm 2 m/s 769 mmHg 84%
07:00 +2°C° 0 mm 3 m/s 769 mmHg 76%
08:00 +5°C° 0 mm 4 m/s 769 mmHg 68%
09:00 +7°C° 0 mm 5 m/s 769 mmHg 60%
10:00 +8°C° 0 mm 5 m/s 769 mmHg 56%
11:00 +8°C° 0 mm 5 m/s 769 mmHg 52%
12:00 +9°C° 0 mm 6 m/s 768 mmHg 49%
13:00 +9°C° 0 mm 6 m/s 768 mmHg 51%
14:00 +9°C° 0 mm 6 m/s 768 mmHg 52%
15:00 +9°C° 0 mm 6 m/s 767 mmHg 54%
16:00 +8°C° 0 mm 6 m/s 768 mmHg 60%
17:00 +7°C° 0 mm 6 m/s 768 mmHg 66%
18:00 +5°C° 0 mm 6 m/s 768 mmHg 71%
19:00 +5°C° 0 mm 5 m/s 768 mmHg 78%
20:00 +3°C° 0 mm 4 m/s 768 mmHg 85%
21:00 +1°C° 0 mm 4 m/s 769 mmHg 92%
22:00 +1°C° 0 mm 4 m/s 768 mmHg 93%
23:00 +1°C° 0 mm 3 m/s 768 mmHg 93%

17 Abril, Sábado

Tempo Temperatura Precipitação Vento Pressão Humidade
00:00 +1°C° 0 mm 3 m/s 768 mmHg 94%
01:00 +1°C° 0 mm 3 m/s 768 mmHg 94%
02:00 +1°C° 0 mm 3 m/s 768 mmHg 94%
03:00 +1°C° 0 mm 3 m/s 768 mmHg 94%
04:00 +1°C° 0 mm 3 m/s 768 mmHg 93%
05:00 +1°C° 0 mm 3 m/s 768 mmHg 92%
06:00 +1°C° 0 mm 3 m/s 768 mmHg 92%
07:00 +3°C° 0 mm 3 m/s 768 mmHg 82%
08:00 +5°C° 0 mm 4 m/s 768 mmHg 72%
09:00 +7°C° 0 mm 5 m/s 768 mmHg 63%
10:00 +8°C° 0 mm 4 m/s 767 mmHg 60%
11:00 +10°C° 0 mm 4 m/s 767 mmHg 57%
12:00 +11°C° 0 mm 4 m/s 767 mmHg 54%
13:00 +12°C° 0 mm 4 m/s 766 mmHg 54%
14:00 +12°C° 0 mm 5 m/s 766 mmHg 54%
15:00 +12°C° 0 mm 5 m/s 766 mmHg 53%
16:00 +10°C° 0 mm 5 m/s 766 mmHg 59%
17:00 +8°C° 0 mm 5 m/s 766 mmHg 65%
18:00 +7°C° 0 mm 5 m/s 766 mmHg 71%
19:00 +5°C° 0 mm 4 m/s 766 mmHg 77%
20:00 +4°C° 0 mm 3 m/s 767 mmHg 83%
21:00 +3°C° 0 mm 2 m/s 767 mmHg 89%
22:00 +3°C° 0 mm 2 m/s 767 mmHg 89%
23:00 +2°C° 0 mm 2 m/s 766 mmHg 89%

18 Abril, Domingo

Tempo Temperatura Precipitação Vento Pressão Humidade
00:00 +3°C° 0 mm 1 m/s 766 mmHg 90%
01:00 +3°C° 0 mm 1 m/s 766 mmHg 90%
02:00 +3°C° 0 mm 1 m/s 766 mmHg 89%
03:00 +3°C° 0 mm 1 m/s 766 mmHg 89%
04:00 +3°C° 0 mm 1 m/s 766 mmHg 87%
05:00 +4°C° 0 mm 1 m/s 766 mmHg 85%
06:00 +4°C° 0 mm 1 m/s 765 mmHg 83%
07:00 +6°C° 0 mm 1 m/s 765 mmHg 76%
08:00 +8°C° 0 mm 1 m/s 765 mmHg 69%
09:00 +9°C° 0 mm 1 m/s 765 mmHg 62%
10:00 +10°C° 0 mm 1 m/s 765 mmHg 59%
11:00 +10°C° 0 mm 2 m/s 765 mmHg 56%
12:00 +12°C° 0 mm 2 m/s 764 mmHg 54%
13:00 +12°C° 0 mm 2 m/s 764 mmHg 56%
14:00 +10°C° 0 mm 2 m/s 764 mmHg 58%
15:00 +10°C° 0 mm 3 m/s 764 mmHg 60%
16:00 +10°C° 0 mm 2 m/s 764 mmHg 66%
17:00 +9°C° 0 mm 2 m/s 763 mmHg 71%
18:00 +8°C° 0 mm 2 m/s 763 mmHg 77%
19:00 +8°C° 0 mm 1 m/s 763 mmHg 79%
20:00 +7°C° 0 mm 1 m/s 763 mmHg 81%
21:00 +6°C° 0 mm 1 m/s 764 mmHg 84%
22:00 +6°C° 0 mm 1 m/s 763 mmHg 84%
23:00 +6°C° 0 mm 1 m/s 763 mmHg 85%

19 Abril, Segunda-feira

Tempo Temperatura Precipitação Vento Pressão Humidade
00:00 +5°C° 0 mm 1 m/s 763 mmHg 86%
01:00 +5°C° 0 mm 1 m/s 763 mmHg 86%
02:00 +4°C° 0 mm 1 m/s 762 mmHg 87%
03:00 +3°C° 0 mm 2 m/s 762 mmHg 88%
04:00 +3°C° 0 mm 2 m/s 762 mmHg 86%
05:00 +3°C° 0 mm 2 m/s 762 mmHg 84%
06:00 +4°C° 0 mm 2 m/s 762 mmHg 83%
07:00 +6°C° 0 mm 2 m/s 761 mmHg 76%
08:00 +8°C° 0 mm 2 m/s 761 mmHg 69%
09:00 +10°C° 0 mm 2 m/s 761 mmHg 62%
10:00 +12°C° 0 mm 2 m/s 761 mmHg 59%
11:00 +13°C° 0 mm 2 m/s 760 mmHg 56%
12:00 +14°C° 0 mm 1 m/s 760 mmHg 52%
13:00 +14°C° 0 mm 1 m/s 759 mmHg 53%
14:00 +14°C° 0 mm 1 m/s 759 mmHg 53%
15:00 +14°C° 0 mm 1 m/s 758 mmHg 53%
16:00 +13°C° 0 mm 2 m/s 758 mmHg 59%
17:00 +12°C° 0 mm 2 m/s 758 mmHg 65%
18:00 +10°C° 0 mm 2 m/s 758 mmHg 72%
19:00 +9°C° 0 mm 2 m/s 758 mmHg 70%
20:00 +9°C° 0 mm 2 m/s 758 mmHg 69%
21:00 +9°C° 0 mm 2 m/s 758 mmHg 68%
22:00 +9°C° 0 mm 2 m/s 758 mmHg 67%
23:00 +8°C° 0 mm 2 m/s 757 mmHg 66%
Mostrar mais

Necessitamos do seu Consentimento

A Meteoprog e os seus Fornecedores de Serviços podem armazenar e aceder a dados pessoais como cookies, identificadores do dispositivo ou outras tecnologias semelhantes existentes no seu dispositivo e processar estes dados para personalizar conteúdos e anúncios, assim como funcionalidades nas redes sociais e análise de tráfego.

  • Armazenar e/ou aceder a informações no seu dispositivo

    Os cookies, identificadores do dispositivo ou outras informações podem ser armazenados ou acedidos no seu dispositivo, para os fins acima indicados.

  • Anúncios e conteúdos personalizados, medição de anúncios e conteúdos, dados sobre o público-alvo e desenvolvimento de produtos

    Os anúncios e os conteúdos podem ser personalizados com base num perfil. Podem ser adicionados dados adicionais para uma maior personalização dos anúncios e dos conteúdos. A eficácia dos anúncios e dos conteúdos pode ser medida. Podem ser obtidas informações sobre o público que visualizou os anúncios e os conteúdos. Estes dados podem ser usados para desenvolver ou melhorar sistemas, softwares ou a experiência do utilizador.

Ao clicar em "Eu concordo”, permitirá o uso de cookies, identificadores do dispositivo e web beacons mencionados ou outras tecnologias semelhantes. As configurações do navegador do seu dispositivo podem ser alteradas.

Para certos fins, podem ser invocados interesses legítimos ao invés de consentimento. Pode ler mais informação sobre este assunto na nossa Política de Privacidade e Cookies.